Time,TemperatureF,DewpointF,PressureIn,WindDirection,WindDirectionDegrees,WindSpeedMPH,WindSpeedGustMPH,Humidity,HourlyPrecipIn,Conditions,Clouds,dailyrainin,SoftwareType,DateUTC
2013-05-15 00:02:00,67.3,56.0,30.14,SW,219,1.0,4.0,68,0.00,,,0.00,weatherlink.com 1.10,2013-05-15 05:02:00,
2013-05-15 00:17:00,67.1,57.0,30.14,SW,219,0.0,3.0,70,0.00,,,0.00,weatherlink.com 1.10,2013-05-15 05:17:00,
2013-05-15 00:32:00,66.6,57.0,30.14,SSW,209,0.0,3.0,72,0.00,,,0.00,weatherlink.com 1.10,2013-05-15 05:32:00,
2013-05-15 00:47:00,66.4,58.0,30.14,SSW,213,1.0,4.0,75,0.00,,,0.00,weatherlink.com 1.10,2013-05-15 05:47:00,
2013-05-15 01:02:00,66.5,59.0,30.14,SSW,209,0.0,2.0,76,0.00,,,0.00,weatherlink.com 1.10,2013-05-15 06:02:00,
2013-05-15 01:17:00,66.6,60.0,30.14,West,279,0.0,4.0,78,0.00,,,0.00,weatherlink.com 1.10,2013-05-15 06:17:00,
2013-05-15 01:32:00,66.5,60.0,30.14,SSW,205,2.0,5.0,80,0.00,,,0.00,weatherlink.com 1.10,2013-05-15 06:32:00,
2013-05-15 01:47:00,66.1,61.0,30.13,SSE,148,0.0,4.0,82,0.00,,,0.00,weatherlink.com 1.10,2013-05-15 06:47:00,
2013-05-15 02:02:00,65.8,61.0,30.13,South,170,0.0,5.0,84,0.00,,,0.00,weatherlink.com 1.10,2013-05-15 07:02:00,
2013-05-15 02:17:00,65.9,61.0,30.12,SSW,197,0.0,2.0,85,0.00,,,0.00,weatherlink.com 1.10,2013-05-15 07:17:00,
2013-05-15 02:32:00,65.9,62.0,30.13,SSW,194,0.0,2.0,86,0.00,,,0.00,weatherlink.com 1.10,2013-05-15 07:32:00,
2013-05-15 02:47:00,65.9,62.0,30.12,SSW,193,0.0,2.0,86,0.00,,,0.00,weatherlink.com 1.10,2013-05-15 07:47:00,
2013-05-15 03:02:00,65.5,62.0,30.12,SSW,194,0.0,1.0,87,0.00,,,0.00,weatherlink.com 1.10,2013-05-15 08:02:00,
2013-05-15 03:17:00,65.3,61.0,30.12,SSW,194,0.0,2.0,87,0.00,,,0.00,weatherlink.com 1.10,2013-05-15 08:17:00,
2013-05-15 03:32:00,65.2,61.0,30.12,South,181,0.0,1.0,87,0.00,,,0.00,weatherlink.com 1.10,2013-05-15 08:32:00,
2013-05-15 03:47:00,65.1,62.0,30.11,South,181,0.0,1.0,88,0.00,,,0.00,weatherlink.com 1.10,2013-05-15 08:47:00,
2013-05-15 04:02:00,65.4,62.0,30.12,South,182,0.0,2.0,88,0.00,,,0.00,weatherlink.com 1.10,2013-05-15 09:02:00,
2013-05-15 04:17:00,65.5,62.0,30.11,ENE,61,2.0,3.0,88,0.00,,,0.00,weatherlink.com 1.10,2013-05-15 09:17:00,
2013-05-15 04:32:00,65.8,62.0,30.11,ESE,112,0.0,2.0,88,0.00,,,0.00,weatherlink.com 1.10,2013-05-15 09:32:00,
2013-05-15 04:47:00,66.1,63.0,30.11,SE,144,0.0,4.0,88,0.00,,,0.00,weatherlink.com 1.10,2013-05-15 09:47:00,
2013-05-15 05:02:00,66.3,63.0,30.11,WSW,242,0.0,1.0,88,0.00,,,0.00,weatherlink.com 1.10,2013-05-15 10:02:00,
2013-05-15 05:17:00,66.2,63.0,30.11,WSW,242,0.0,2.0,88,0.00,,,0.00,weatherlink.com 1.10,2013-05-15 10:17:00,
2013-05-15 05:32:00,66.1,63.0,30.11,SE,129,0.0,3.0,88,0.00,,,0.00,weatherlink.com 1.10,2013-05-15 10:32:00,
2013-05-15 05:47:00,66.0,62.0,30.12,SE,126,0.0,3.0,88,0.00,,,0.00,weatherlink.com 1.10,2013-05-15 10:47:00,
2013-05-15 06:02:00,66.0,62.0,30.11,SE,128,0.0,1.0,88,0.00,,,0.00,weatherlink.com 1.10,2013-05-15 11:02:00,
2013-05-15 06:32:00,65.9,62.0,30.11,SE,134,0.0,2.0,88,0.00,,,0.00,weatherlink.com 1.10,2013-05-15 11:32:00,
2013-05-15 06:47:00,65.9,62.0,30.11,SE,141,0.0,3.0,88,0.00,,,0.00,weatherlink.com 1.10,2013-05-15 11:47:00,
2013-05-15 07:17:00,66.4,63.0,30.12,WSW,237,0.0,1.0,89,0.00,,,0.00,weatherlink.com 1.10,2013-05-15 12:17:00,
2013-05-15 07:32:00,66.9,63.0,30.12,SW,224,0.0,3.0,88,0.00,,,0.00,weatherlink.com 1.10,2013-05-15 12:32:00,
2013-05-15 08:02:00,67.9,64.0,30.13,SSW,192,0.0,3.0,88,0.00,,,0.00,weatherlink.com 1.10,2013-05-15 13:02:00,
2013-05-15 08:17:00,68.3,65.0,30.14,SSW,200,0.0,4.0,88,0.00,,,0.00,weatherlink.com 1.10,2013-05-15 13:17:00,
2013-05-15 08:47:00,69.1,65.0,30.13,ESE,112,0.0,3.0,87,0.00,,,0.00,weatherlink.com 1.10,2013-05-15 13:47:00,
2013-05-15 09:02:00,69.6,66.0,30.12,SW,231,0.0,3.0,87,0.00,,,0.00,weatherlink.com 1.10,2013-05-15 14:02:00,
2013-05-15 09:32:00,70.7,66.0,30.12,SE,145,0.0,3.0,85,0.00,,,0.00,weatherlink.com 1.10,2013-05-15 14:32:00,
2013-05-15 09:47:00,71.1,66.0,30.12,NE,42,1.0,3.0,85,0.00,,,0.00,weatherlink.com 1.10,2013-05-15 14:47:00,
2013-05-15 10:02:00,71.6,67.0,30.12,ESE,116,1.0,1.0,84,0.00,,,0.00,weatherlink.com 1.10,2013-05-15 15:02:00,
2013-05-15 10:17:00,72.7,67.0,30.12,South,190,0.0,2.0,83,0.00,,,0.00,weatherlink.com 1.10,2013-05-15 15:17:00,
2013-05-15 10:33:00,73.8,67.0,30.11,South,169,0.0,3.0,79,0.00,,,0.00,weatherlink.com 1.10,2013-05-15 15:33:00,
2013-05-15 10:48:00,73.6,67.0,30.10,South,178,0.0,3.0,79,0.00,,,0.00,weatherlink.com 1.10,2013-05-15 15:48:00,
2013-05-15 11:03:00,74.2,67.0,30.10,SSE,161,0.0,4.0,78,0.00,,,0.00,weatherlink.com 1.10,2013-05-15 16:03:00,
2013-05-15 11:18:00,74.3,67.0,30.11,SW,231,1.0,3.0,78,0.00,,,0.00,weatherlink.com 1.10,2013-05-15 16:18:00,
2013-05-15 11:33:00,74.2,67.0,30.11,SSE,168,0.0,2.0,78,0.00,,,0.00,weatherlink.com 1.10,2013-05-15 16:33:00,
2013-05-15 11:48:00,74.4,66.0,30.10,SW,217,0.0,1.0,76,0.00,,,0.00,weatherlink.com 1.10,2013-05-15 16:48:00,
2013-05-15 12:03:00,74.0,66.0,30.10,SW,236,0.0,3.0,76,0.00,,,0.00,weatherlink.com 1.10,2013-05-15 17:03:00,
2013-05-15 12:18:00,73.3,66.0,30.11,ESE,113,1.0,4.0,77,0.00,,,0.00,weatherlink.com 1.10,2013-05-15 17:18:00,
2013-05-15 12:33:00,72.5,67.0,30.11,South,180,0.0,1.0,82,0.00,,,0.00,weatherlink.com 1.10,2013-05-15 17:33:00,
2013-05-15 12:48:00,71.6,67.0,30.10,SE,134,0.0,1.0,84,0.01,,,0.01,weatherlink.com 1.10,2013-05-15 17:48:00,
2013-05-15 13:03:00,69.9,66.0,30.10,SE,134,0.0,1.0,87,0.04,,,0.04,weatherlink.com 1.10,2013-05-15 18:03:00,
2013-05-15 13:18:00,69.0,65.0,30.09,SE,134,0.0,0.0,88,0.06,,,0.06,weatherlink.com 1.10,2013-05-15 18:18:00,
2013-05-15 13:33:00,68.5,65.0,30.08,SE,134,0.0,0.0,88,0.08,,,0.08,weatherlink.com 1.10,2013-05-15 18:33:00,
2013-05-15 13:48:00,68.0,64.0,30.08,SE,134,0.0,1.0,88,0.08,,,0.09,weatherlink.com 1.10,2013-05-15 18:48:00,
2013-05-15 14:03:00,67.7,64.0,30.07,SE,134,0.0,0.0,88,0.06,,,0.10,weatherlink.com 1.10,2013-05-15 19:03:00,
2013-05-15 14:33:00,67.9,64.0,30.05,SE,134,0.0,0.0,88,0.05,,,0.13,weatherlink.com 1.10,2013-05-15 19:33:00,
2013-05-15 15:18:00,67.7,64.0,30.04,South,188,0.0,0.0,88,0.03,,,0.14,weatherlink.com 1.10,2013-05-15 20:18:00,
2013-05-15 15:33:00,68.0,64.0,30.02,South,188,0.0,0.0,88,0.01,,,0.14,weatherlink.com 1.10,2013-05-15 20:33:00,
2013-05-15 15:48:00,67.6,64.0,30.02,South,188,0.0,1.0,89,0.03,,,0.17,weatherlink.com 1.10,2013-05-15 20:48:00,
2013-05-15 16:03:00,67.4,64.0,30.01,South,188,0.0,1.0,88,0.04,,,0.18,weatherlink.com 1.10,2013-05-15 21:03:00,
2013-05-15 16:18:00,67.5,64.0,30.01,South,187,0.0,2.0,88,0.05,,,0.19,weatherlink.com 1.10,2013-05-15 21:18:00,
2013-05-15 16:48:00,68.7,65.0,30.00,South,188,0.0,0.0,88,0.02,,,0.19,weatherlink.com 1.10,2013-05-15 21:48:00,
2013-05-15 17:03:00,69.3,66.0,29.99,South,188,0.0,1.0,88,0.01,,,0.19,weatherlink.com 1.10,2013-05-15 22:03:00,
2013-05-15 17:18:00,69.3,66.0,29.99,South,188,0.0,1.0,88,0.00,,,0.19,weatherlink.com 1.10,2013-05-15 22:18:00,
2013-05-15 17:48:00,69.2,66.0,29.98,South,188,0.0,2.0,88,0.00,,,0.19,weatherlink.com 1.10,2013-05-15 22:48:00,
2013-05-15 18:18:00,68.4,65.0,29.96,SSE,163,0.0,2.0,89,0.00,,,0.19,weatherlink.com 1.10,2013-05-15 23:18:00,
2013-05-15 18:33:00,67.8,65.0,29.96,SSE,163,0.0,1.0,89,0.02,,,0.21,weatherlink.com 1.10,2013-05-15 23:33:00,
2013-05-15 18:48:00,67.8,65.0,29.95,SSE,164,0.0,1.0,89,0.02,,,0.21,weatherlink.com 1.10,2013-05-15 23:48:00,
2013-05-15 19:03:00,68.4,65.0,29.94,East,99,0.0,1.0,88,0.02,,,0.21,weatherlink.com 1.10,2013-05-16 00:03:00,
2013-05-15 19:18:00,68.2,65.0,29.93,East,91,0.0,2.0,88,0.02,,,0.21,weatherlink.com 1.10,2013-05-16 00:18:00,
2013-05-15 19:33:00,67.9,64.0,29.93,SE,132,0.0,2.0,88,0.00,,,0.21,weatherlink.com 1.10,2013-05-16 00:33:00,
2013-05-15 20:03:00,67.1,64.0,29.93,SW,232,0.0,7.0,89,0.00,,,0.21,weatherlink.com 1.10,2013-05-16 01:03:00,
2013-05-15 20:18:00,66.8,64.0,29.93,SW,224,0.0,2.0,89,0.00,,,0.21,weatherlink.com 1.10,2013-05-16 01:18:00,
2013-05-15 20:33:00,66.5,63.0,29.93,SSW,210,0.0,2.0,89,0.00,,,0.21,weatherlink.com 1.10,2013-05-16 01:33:00,
2013-05-15 20:48:00,66.4,63.0,29.93,South,186,0.0,3.0,89,0.00,,,0.21,weatherlink.com 1.10,2013-05-16 01:48:00,
2013-05-15 21:03:00,66.3,63.0,29.94,SSE,154,0.0,1.0,89,0.00,,,0.21,weatherlink.com 1.10,2013-05-16 02:03:00,
2013-05-15 21:34:00,66.1,63.0,29.94,NNW,338,0.0,4.0,89,0.00,,,0.21,weatherlink.com 1.10,2013-05-16 02:34:00,
2013-05-15 21:49:00,66.1,63.0,29.94,West,266,0.0,3.0,89,0.00,,,0.21,weatherlink.com 1.10,2013-05-16 02:49:00,
2013-05-15 22:04:00,65.9,62.0,29.94,SW,217,0.0,1.0,88,0.00,,,0.21,weatherlink.com 1.10,2013-05-16 03:04:00,
2013-05-15 22:19:00,65.8,62.0,29.94,South,184,0.0,3.0,88,0.00,,,0.21,weatherlink.com 1.10,2013-05-16 03:19:00,
2013-05-15 22:34:00,65.8,62.0,29.95,South,187,0.0,3.0,88,0.00,,,0.21,weatherlink.com 1.10,2013-05-16 03:34:00,
2013-05-15 22:49:00,65.9,62.0,29.95,SSW,205,0.0,4.0,88,0.00,,,0.21,weatherlink.com 1.10,2013-05-16 03:49:00,
2013-05-15 23:04:00,66.0,62.0,29.95,SE,134,1.0,3.0,88,0.00,,,0.21,weatherlink.com 1.10,2013-05-16 04:04:00,
2013-05-15 23:19:00,66.6,63.0,29.95,SE,125,4.0,4.0,88,0.00,,,0.21,weatherlink.com 1.10,2013-05-16 04:19:00,
2013-05-15 23:34:00,66.8,64.0,29.93,WSW,246,0.0,7.0,89,0.00,,,0.21,weatherlink.com 1.10,2013-05-16 04:34:00,
2013-05-15 23:49:00,67.1,64.0,29.93,SSE,147,0.0,3.0,89,0.00,,,0.21,weatherlink.com 1.10,2013-05-16 04:49:00,